Language selection

My Weather Profile Weather Topics  | 

West Brevoort - northern half: Past 24 Hour Conditions

 

Hopedale

06:00 AM ADT 09 May 2021
Disclaimer

This table is a summary of hourly weather conditions for the past 24 hours.
Please note that these observations might not always be representative of weather conditions over their associated marine area.

Date / Time
(ADT)
Wind(knots) Conditions Visibility(km) Pressure(kPa) Air tempC) Relative humidity(%) Dew pointC) Wind Chill
09 May 2021
6:00 8 N/A N/A 102.2 1 96 0 *
5:00 8 N/A N/A 102.1 0 92 -1 *
4:00 8 N/A N/A 102.2 1 90 -1 *
3:00 4 N/A N/A 102.3 1 90 -1 *
2:00 4 N/A N/A 102.4 1 91 -1 *
1:00 4 N/A N/A 102.4 0 95 0 *
0:00 5 N/A N/A 102.4 0 94 -1 *
08 May 2021
23:00 3 gust 28 N/A N/A 102.5 0 91 -1 *
22:00 5 N/A N/A 102.5 0 92 -1 *
21:00 4 N/A N/A 102.6 0 89 -1 *
20:00 5 N/A N/A 102.6 0 89 -1 *
19:00 8 N/A N/A 102.6 1 87 -1 *
18:00 8 gust 24 N/A N/A 102.6 1 87 -2 *
17:00 6 N/A N/A 102.6 1 80 -2 *
16:00 8 N/A N/A 102.6 1 77 -3 *
15:00 8 N/A N/A 102.6 2 76 -2 *
14:00 6 N/A N/A 102.7 1 79 -2 *
13:00 8 N/A N/A 102.7 1 81 -2 *
12:00 4 gust 21 N/A N/A 102.7 1 84 -2 *
11:00 4 N/A N/A 102.7 1 85 -2 *
10:00 6 N/A N/A 102.7 1 87 -1 *
9:00 7 N/A N/A 102.7 1 88 -1 *
8:00 3 N/A N/A 102.7 0 92 -1 -2
7:00 4 N/A N/A 102.6 0 92 -1 *
6:00 4 N/A N/A 102.6 0 92 -1 *

Zoom-in to make a selection

Map of Atlantic - Labrador marine weather areas Kangiqsualujjuaq Airport Cape Kakkiviak Cape Kiglapait Cartwright Airport CFB Goose Bay Hopedale Mary's Harbour Nain Airport Makkovik Airport Saglek Tukialik Bay
Legend:
buoy Buoy
land station Land Station

Atlantic - Labrador Area

Another Region

What we are doing

Date modified: